Location: Cassagne
(43.1218°N, 0.9901°E)
Time: 15:39:46
(UTC+00:00)

STARLINK-1085 - Pass Details

Date: 17 February 2020
Orbit: 374 x 385 km, 53.0° (Epoch: 28 March)

Event Time Altitude Azimuth Distance (km) Brightness Sun altitude
Exits shadow 03:54:20 - 106° (ESE) 1,823 7.0 -32.9°
Enters shadow 04:53:20 -65° 232° (SW) 11,938 10.4 -22.3°
Maximum altitude 05:28:12 56° 140° (SE) 461 3.4 -15.9°
